Regional Weather Roundup
Issued by NWS

Home | Current Version | Previous Version | Graphics & Text | Print | Product List | Glossary On
Versions: 1 2 3 4 5 6 7 8 9 10 11 12 13 14 15 16 17 18 19 20 21 22 23 24 25 26 27 28 29 30 31 32 33 34 35 36 37 38 39 40 41 42 43 44 45 46 47 48 49 50
000
ASUS43 KMPX 232301
RWRMN
WEATHER ROUNDUP FOR MINNESOTA
NATIONAL WEATHER SERVICE TWIN CITIES/CHANHASSEN MN
600 PM CDT SUN JUL 23 2017


NOTE: "FAIR" INDICATES FEW OR NO CLOUDS BELOW 12,000 FEET WITH NO
SIGNIFICANT WEATHER AND/OR OBSTRUCTIONS TO VISIBILITY. N/A MEANS
CURRENT SKY AND/OR WEATHER CONDITIONS ARE NOT AVAILABLE.

MNZ060>063-068>070-240000-
   Twin Cities Metro

CITY           SKY/WX    TMP DP  RH WIND       PRES   REMARKS
TWIN CITIES    MOSUNNY   75  57  53 NE16G25   29.96R
ST PAUL        SUNNY     75  58  55 NE15G25   29.96R
CRYSTAL        MOSUNNY   76  55  48 N10G17    29.94S
BLAINE         MOSUNNY   75  57  53 N16       29.96S
LAKEVILLE      PTSUNNY   75  61  60 NE9       29.95S
EDEN PRAIRIE   CLOUDY    76  59  55 N9        29.94S
SOUTH ST PAUL  SUNNY     75  56  50 N13G18    29.95R
LAKE ELMO      FAIR      72  59  64 NE13      29.97S
$$
MNZ001>005-007-008-013>017-022>024-027-028-240000-
   Northwest Minnesota

CITY           SKY/WX    TMP DP  RH WIND       PRES   REMARKS
BEMIDJI        SUNNY     72  56  58 CALM      30.02S
HALLOCK        SUNNY     79  61  53 CALM      29.97S
ROSEAU         SUNNY     79  61  53 CALM      29.99S
WARROAD        SUNNY     75  63  64 E3        30.00F
CROOKSTON      PTSUNNY   77  63  61 CALM      29.98F
FOSSTON        SUNNY     79  64  61 CALM      30.01S
DETROIT LAKES  SUNNY     73  59  60 NE6       30.01F
MOORHEAD       MOSUNNY   75  61  60 CALM      29.99F
PARK RAPIDS    MOSUNNY   74  57  55 VRB6      30.01S
MAHNOMEN       FAIR      74  58  58 CALM      30.00S
$$
MNZ006-009>011-018-025>026-240000-
   North Central Minnesota

CITY           SKY/WX    TMP DP  RH WIND       PRES   REMARKS
BAUDETTE       SUNNY     78  59  51 N6        29.99S
FLAG ISLAND    SUNNY     77  55  47 CALM      29.98F HAZE
INTL FALLS     SUNNY     77  52  41 NE3       29.99S
WASKISH        PTSUNNY   75  63  64 W9        29.99S
BIG FORK       MOSUNNY   75  55  50 CALM      30.01S
LONGVILLE      MOSUNNY   72  57  60 CALM      30.01F
GRAND RAPIDS   PTSUNNY   70  60  70 CALM      30.03S
CRANE LAKE     SUNNY     73  52  46 CALM      30.01S
ORR            MOSUNNY   73  54  49 CALM      29.98S
COOK           SUNNY     72  54  53 N3        30.01R
WALKER         FAIR      71  57  61 E5        30.02S
$$
MNZ012-019>021-037-240000-
   Northeast Minnesota

CITY           SKY/WX    TMP DP  RH WIND       PRES   REMARKS
DULUTH         MOSUNNY   64  59  83 CALM      30.02S
ELY            SUNNY     73  48  40 NE6       30.00S
HIBBING        MOSUNNY   71  55  56 CALM      30.00S
EVELETH        MOSUNNY   73  49  43 CALM      30.01S
DULUTH HARBOR  MOSUNNY   64  61  88 NE5       30.02S
TWO HARBORS    SUNNY     70  61  73 SE6       30.01R
G MARAIS ARPRT SUNNY     66  50  55 SE5       30.03S
$$
MNZ029>031-032-039>041-046>048-054>057-064-240000-
   West Central Minnesota

CITY           SKY/WX    TMP DP  RH WIND       PRES   REMARKS
FERGUS FALLS   SUNNY     73  59  60 N6        29.98F
WHEATON        SUNNY     73  57  56 N3        30.02S
MORRIS         MOSUNNY   77  57  50 CALM      29.99S
ALEXANDRIA     SUNNY     75  61  61 N7        30.01S
ELBOW LAKE     PTSUNNY   72  61  69 N7        30.00S
WADENA         MOSUNNY   75  59  57 NE6       30.00S
GLENWOOD       SUNNY     75  59  57 N8        30.00S
APPLETON       MOSUNNY   77  57  50 N7        29.99S
BENSON         SUNNY     77  59  53 N6        30.00S
ORTONVILLE     SUNNY     73  57  56 N8        30.00F
MADISON        MOSUNNY   77  59  53 N6        30.00F
WILLMAR        FAIR      77  61  57 N8        29.99S
$$
MNZ033>034-036-042>043-049>051-058-059-240000-
   Central Minnesota

CITY           SKY/WX    TMP DP  RH WIND       PRES   REMARKS
ST CLOUD       PTSUNNY   74  59  59 N10       29.98R
SAUK CENTRE    FAIR      74  61  62 NE6       29.99S
PAYNESVILLE    PTSUNNY   78  60  53 NE7       29.99R
AITKIN         CLOUDY    70  59  68 NE5       30.00S
PINE RIVER     MOSUNNY   72  57  60 NE7       30.04S
BRAINERD       MOSUNNY   73  59  61 NE8       30.00S
STAPLES        MOSUNNY   75  54  46 NE8       30.00S
LONG PRAIRIE   FAIR      72  59  64 N8        30.00S
LITTLE FALLS   CLOUDY    72  57  60 NE3       29.99F
LITCHFIELD     MOSUNNY   77  63  61 N9        29.98R
BUFFALO        SUNNY     76  57  51 N8        29.98R
MAPLE LAKE     MOSUNNY   77  59  53 N8        29.98S
HUTCHINSON     PTSUNNY   76  61  60 N5        29.98R
$$
MNZ037-044-045-052-053-240000-
   East Central Minnesota

CITY           SKY/WX    TMP DP  RH WIND       PRES   REMARKS
PRINCETON      CLOUDY    73  61  64 NE8       29.98S
MORA           PTSUNNY   70  59  68 NE6       30.01R
CAMBRIDGE      PTSUNNY   73  57  56 NE6       29.96S
RUSH CITY      PTSUNNY   69  60  72 NE10      29.99S
MOOSE LAKE     CLOUDY    66  59  77 CALM      30.00S
HINCKLEY       MOCLDY    70  61  73 E9        30.00S
CLOQUET        PTSUNNY   66  55  68 E5        30.01F
MCGREGOR       CLOUDY    70  61  73 E5        30.02S
$$
MNZ071>073-080-081-089-090-097-098-240000-
   Southwest Minnesota

CITY           SKY/WX    TMP DP  RH WIND       PRES   REMARKS
MONTEVIDEO     PTSUNNY   81  63  54 NE7       30.00R
GRANITE FALLS  PTSUNNY   77  61  58 N7        30.01S
CANBY          SUNNY     76  57  50 CALM      30.02S
MARSHALL       MOSUNNY   74  60  61 N8        30.00F
REDWOOD FALLS  PTSUNNY   77  59  53 N12       29.98R
OLIVIA         MOSUNNY   77  59  53 N7        29.98S
PIPESTONE      MOSUNNY   75  61  60 NE9       30.02R
WINDOM         SUNNY     73  57  56 NW13      30.00R
WORTHINGTON    MOSUNNY   73  60  63 N13       30.01S
JACKSON        PTSUNNY   72  59  64 CALM      30.00S
SLAYTON        RAIN      72  58  61 N12G17    30.02S
$$
MNZ065>067-074>077-082>085-091>093-240000-
   South Central Minnesota

CITY           SKY/WX    TMP DP  RH WIND       PRES   REMARKS
MANKATO        PTSUNNY   75  60  59 N10       29.96S
NEW ULM        MOSUNNY   75  59  57 N6        29.97R
ST JAMES       MOSUNNY   73  61  64 NW8       29.98S
FAIRMONT       MOSUNNY   74  61  63 N10       29.98S
GLENCOE        CLOUDY    77  64  64 N9        29.96R
FARIBAULT      SUNNY     75  61  60 NW12G20   29.95S
OWATONNA       SUNNY     75  61  60 NW10      29.95S
WASECA         MOSUNNY   73  61  64 N7        29.97S
ALBERT LEA     MOSUNNY   73  61  64 N7        29.95S
$$
MNZ078>079-086>088-094>096-240000-
   Southeast Minnesota

CITY           SKY/WX    TMP DP  RH WIND       PRES   REMARKS
ROCHESTER      MOSUNNY   73  60  63 N17       29.94R
RED WING       SUNNY     73  55  53 NE12G17   29.94R
STANTON        MOSUNNY   75  60  59 NE12G20   29.94R
DODGE CENTER   MOSUNNY   75  61  60 NW10G16   29.95R
WINONA         SUNNY     73  59  60 N10G16    29.92R
AUSTIN         SUNNY     75  59  57 N8        29.94S
PRESTON        MOSUNNY   71  59  64 N12G17    29.94R
$$
ABBREVIATIONS USED IN REMARKS
   TC - TEMPERATURES IN CELSIUS
  WCI - WIND CHILL INDEX
   HX - HEAT INDEX
  VSB - VISIBILITY
$$



USA.gov is the U.S. government's official web portal to all federal, state and local government web resources and services.